DW6083 Weather Reports


time (UTC)temp
F
wind
direction
speed
knots
gust
knots
rain 1hr
in
rain 24hr
in
rain mn
in
humidity
%
barometer
mb
20260906220006 0 115 0.9 7.0 0.00 0.00 0.00 1010.8
20260906214501 0 355 3.5 11.3 0.00 0.00 0.00 1011.4
20260906213002 0 91 2.6 9.6 0.00 0.00 0.00 1010.7
20260906211608 0 355 6.1 13.9 0.00 0.00 0.00 1010.5
20260906210109 0 5 7.8 18.2 0.00 0.00 0.00 1009.3
20260906204551 0 138 0.0 4.3 0.00 0.00 0.00 1008.9
20260906203046 0 138 1.7 6.1 0.00 0.00 0.00 1008.9
20260906201541 0 138 0.0 4.3 0.00 0.00 0.00 1008.8
20260906200046 0 138 0.9 3.5 0.00 0.00 0.00 1009.7
20260906194536 0 138 0.9 3.5 0.00 0.00 0.00 1009.9
20260906193030 0 138 1.7 6.1 0.00 0.00 0.00 1009.9
20260906191524 0 138 2.6 7.0 0.00 0.00 0.00 1010.0
20260906190019 0 138 2.6 4.3 0.00 0.00 0.00 1010.2
20260906184515 0 138 0.9 6.1 0.00 0.00 0.00 1010.5
20260906183025 0 138 1.7 3.5 0.00 0.00 0.00 1010.9
20260906181506 0 138 0.9 3.5 0.00 0.00 0.00 1011.0
20260906173057 0 138 0.9 4.3 0.00 0.00 0.00 1011.5
20260906171604 0 138 2.6 6.1 0.00 0.00 0.00 1011.6
20260906170053 0 138 1.7 6.1 0.00 0.00 0.00 1011.8
20260906164553 0 138 0.9 6.1 0.00 0.00 0.00 1011.9
20260906163048 0 138 0.0 3.5 0.00 0.00 0.00 1012.1
20260906161535 0 138 0.9 6.1 0.00 0.00 0.00 1012.2
20260906160044 0 138 2.6 4.3 0.00 0.00 0.00 1012.4
20260906154526 0 138 0.0 4.3 0.00 0.00 0.00 1012.4
20260906153021 0 138 1.7 3.5 0.00 0.00 0.00 1012.3
20260906151517 0 140 1.7 4.3 0.00 0.00 0.00 1012.4
20260906150031 0 140 0.0 4.3 0.00 0.00 0.00 1012.3
20260906144507 0 145 1.7 5.2 0.00 0.00 0.00 1012.4
20260906143006 0 157 0.0 0.0 0.00 0.00 0.00 1012.4
20260906141622 0 169 0.0 0.0 0.00 0.00 0.00 1012.5
20260906140107 0 169 0.0 0.0 0.00 0.00 0.00 1012.4
20260906134553 0 169 0.0 0.0 0.00 0.00 0.00 1012.3
20260906133050 0 169 0.0 0.9 0.00 0.00 0.00 1012.4
20260906131543 0 169 0.0 0.0 0.00 0.00 0.00 1012.3
20260906130046 0 169 0.0 0.0 0.00 0.00 0.00 1012.3
20260906124536 0 169 0.0 0.9 0.00 0.00 0.00 1012.2
20260906123031 0 169 0.0 0.0 0.00 0.00 0.00 1012.1
20260906121526 0 169 0.0 0.0 0.00 0.00 0.00 1011.9
20260906120022 0 169 0.0 0.0 0.00 0.00 0.00 1011.8
20260906114532 0 169 0.0 0.0 0.00 0.00 0.00 1011.7
20260906113013 0 169 0.0 0.0 0.00 0.00 0.00 1011.6
20260906111508 0 169 0.0 0.0 0.00 0.00 0.00 1011.3
20260906110005 0 169 0.0 0.0 0.00 0.00 0.00 1011.2
20260906104620 0 169 0.0 0.0 0.00 0.00 0.00 1011.1
20260906103056 0 169 0.0 0.0 0.00 0.00 0.00 1011.0
20260906101551 0 169 0.0 0.0 0.00 0.00 0.00 1011.1
20260906100047 0 169 0.0 0.0 0.00 0.00 0.00 1011.1
20260906094606 0 169 0.0 0.0 0.00 0.00 0.00 1011.2
20260906093039 0 169 0.0 0.0 0.00 0.00 0.00 1011.3
20260906091541 0 169 0.0 0.0 0.00 0.00 0.00 1011.2
20260906090033 0 169 0.0 0.0 0.00 0.00 0.00 1011.1
20260906084536 0 169 0.0 0.0 0.00 0.00 0.00 1011.1
20260906083033 0 169 0.0 0.0 0.00 0.00 0.00 1010.8
20260906081539 0 169 0.0 0.0 0.00 0.00 0.00 1010.7
20260906080018 0 169 0.0 0.0 0.00 0.00 0.00 1010.8
20260906074514 0 169 0.0 0.0 0.00 0.00 0.00 1010.7
20260906073009 0 169 0.0 0.0 0.00 0.00 0.00 1010.7
20260906071504 0 169 0.0 0.0 0.00 0.00 0.00 1010.5
20260906070100 0 169 0.0 0.0 0.00 0.00 0.00 1010.9
20260906064556 0 169 0.0 0.0 0.00 0.00 0.00 1010.9
20260906063052 0 169 0.0 0.0 0.00 0.00 0.00 1011.3
20260906061547 0 169 0.0 0.0 0.00 0.00 0.00 1011.5
20260906060043 0 169 0.0 0.0 0.00 0.00 0.00 1011.7
20260906054538 0 169 0.0 0.0 0.00 0.00 0.00 1012.0
20260906053034 0 169 0.0 0.0 0.00 0.00 0.00 1012.2
20260906051528 0 169 0.0 0.0 0.00 0.00 0.00 1012.3
20260906050024 0 169 0.0 0.0 0.00 0.00 0.00 1012.2
20260906044527 0 169 0.0 0.9 0.00 0.00 0.00 1012.3
20260906043016 0 169 0.0 0.0 0.00 0.00 0.00 1012.2
20260906041511 0 169 0.0 0.0 0.00 0.00 0.00 1012.1
20260906040005 0 169 0.0 0.9 0.00 0.00 0.00 1012.2
20260906034504 0 169 0.0 0.0 0.00 0.00 0.00 1012.1
20260906033004 0 169 0.0 0.0 0.00 0.00 0.00 1012.1
20260906031503 0 169 0.0 0.0 0.00 0.00 0.00 1012.1
20260906030003 0 169 0.0 0.0 0.00 0.00 0.00 1012.2
20260906024501 0 169 0.0 0.0 0.00 0.00 0.00 1012.2
20260906023001 0 169 0.0 0.0 0.00 0.00 0.00 1012.5
20260906021607 0 169 0.0 0.0 0.00 0.00 0.00 1012.4
20260906020106 0 169 0.0 0.0 0.00 0.00 0.00 1012.2
20260906014601 0 169 0.0 0.9 0.00 0.00 0.00 1012.1
20260906013100 0 169 0.0 0.0 0.00 0.00 0.00 1012.0
20260906011600 0 169 0.0 0.0 0.00 0.00 0.00 1012.0
20260906010106 0 169 0.0 0.0 0.00 0.00 0.00 1011.5
20260906004603 0 169 0.0 0.0 0.00 0.00 0.00 1011.4
20260906003100 0 169 0.0 0.0 0.00 0.00 0.00 1011.1
20260906001609 0 169 0.0 0.9 0.00 0.00 0.00 1011.0
20260906000056 0 169 0.0 0.0 0.00 0.00 0.00 1011.3
20260905234557 0 169 0.0 0.9 0.00 0.00 0.00 1011.2
20260905233108 0 169 0.0 0.9 0.00 0.00 0.00 1011.4
20260905231553 0 169 0.0 0.9 0.00 0.00 0.00 1011.3
20260905230052 0 169 0.0 0.0 0.00 0.00 0.00 1011.7
20260905224546 0 169 0.0 0.9 0.00 0.00 0.00 1011.8
20260905223043 0 169 0.0 0.0 0.00 0.00 0.00 1011.7
20260905221543 0 135 0.0 0.9 0.00 0.00 0.00 1011.5